OPS 4682 DEB, 19664

Orbit data source: Space-Track

OPS 4682 DEB, 19664 is space debris in LEO originally from a launch on Sat, 03 Apr 1965 UTC launched from the Air Force Western Test Range (AFWTR). Debris objects in space refer to the collection of defunct objects orbiting the Earth. Examples of debris include non-operational satellites, rocket bodies, and fragments generated from explosions, collisions, or faulty payload assembly.

Loading next visibility...
Identifier
19664, 1965-027AX
Orbit
LEO
Country
Flag of USUS
Related business
Manufacturer
Unknown
Mission
Spacecraft
Bus & Motor
Unknown
Mass
Unknown
Launch date (UTC)
1965-04-03 (61 years ago)
Launch vehicle
Unknown
Launch site
Air Force Western Test Range (AFWTR)
Object type
Payload
Rocket body
Debris
Shape & HBR
Unknown shape, 0.1 m
Radar Cross Section
Medium (>0.1 m² and <1 m²)

Expand to show TLE details & history
Last TLE update: 2 days ago

TLE from 2 days ago
0 OPS 4682 DEB
1 19664U 65027AX  26173.45598693 -.00000279  00000-0 -89980-3 0  9991
2 19664  90.2468 357.9162 0026339 167.4326 220.5697 13.04002893 57229
Epoch: 2026-06-22T10:56Z
TLE epoch observation values (Epoch: 2026-06-22T10:56:37.270Z)
Latitude
27.84359°
Longitude
-77.01045°
Altitude
1,265.149 km
Speed
7.218 km/s
True Right ascension
23h 51m 08s
True Declination
27° 42' 40"
Sunlit
Object was in daylight at epoch
Visualization orbit readout
Latitude
Unknown
Longitude
Unknown
Altitude
Unknown
Speed
Unknown
Apparent Right ascension
Unknown
Apparent Declination
Unknown
Sunlit
N/A
Visualization observer readout
Local Sidereal Time
21:05:47
Azimuth
Unknown
Elevation
Unknown
Doppler factor
Unknown
Orbital elements
Apogee altitude
1,263.639 km
Perigee altitude
1,223.489 km
Semi-major axis
7,621.701 km
Eccentricity
0.00263
Inclination
90.2468°
RAAN
357.9162°
Arg. of periapsis
167.4326°
True anomaly
220.37389°
Mean anomaly
220.5697°
Eccentric anomaly
220.47175°
Mean motion
3.26186 °/min
Orbital period
110.37 mins
BSTAR
-0.0008998
Loading maneuver chart data...
Computing Atmospheric mass density...
Loading historical data...
Loading historical data...
Loading historical data...
Loading historical data...
Loading historical data...
Loading historical data...
Loading historical data...

Documentation

Showing up to 5 results
|